[[{"header":{"parameterUnit":"m.s-1","parameterCategory":1,"la1":30.2991,"la2":30.254,"lo1":-89.0895,"lo2":-89.0444,"dy":0.0017,"dx":0.0017,"nx":28,"ny":28,"refTime":"2023-08-18T03:00:00:Z","depth":0,"parameterNumber":2,"parameterNumberName":"U-component_of_WINDS"},"data":[0,0,0,0,0,0,0,0,0,0,0,0,0,0,0,0,0,0,0,0,0,0,0,0,0,0,0,0,0,0,0,0,0,0,0,0,0,0,0,0,0,0,0,0,0,0,0,0,0,0,0,0,0,0,0,0,0,0,0.9917,0.9919,0,1.0099,1.0101,1.0103,1.0148,1.0147,1.0146,1.0145,1.0334,1.034,1.0346,0,0,0,0,0,0,0,0,0,0,0,0,0,0.961,0.9616,0.9917,0.9919,0.9921,1.0098,1.0101,1.0103,1.0149,1.0147,1.0146,1.0144,1.0332,1.0339,1.0347,0,0,0,0,0,0,0,0,0,0,0,0,0,0.9763,0.9618,0.9917,0.9965,0.9971,1.0098,1.0101,1.0104,1.0149,1.0147,1.0145,1.0144,1.033,1.0339,1.0348,1.044,0,0,1.0376,1.038,0,0,0,0,0,0,0,0,0.9754,0.9774,0.9956,0.9962,0.9969,1.0099,1.0062,1.0217,1.0149,1.0082,1.0145,1.0143,1.0258,1.0273,1.0311,1.0448,1.0457,1.0377,1.0382,1.0386,1.0389,0,0,0,0,0,0,0,0.9744,0.9767,0.9989,0.9958,0.9967,0.9978,0.9998,1.0092,1.0177,1.0087,1.0091,1.0112,1.0261,1.0302,1.0315,1.0459,1.0376,1.0385,1.039,1.0394,1.0679,1.0681,0,0,0,0,0,0,0.9724,0.9758,0.9983,0.9994,0.9855,0.9985,1.0007,1.0059,1.0176,1.0192,1.0113,1.0113,1.0287,1.0305,1.0322,1.0436,1.0386,1.0395,1.04,1.0677,1.068,1.0682,0,0,0,0,0,0,0.9718,0.9744,0.9976,0.9877,0.9907,0.9992,1.005,1.0064,1.0104,1.0196,1.0211,1.0139,1.0286,1.0309,1.0409,1.0443,1.0399,1.0407,1.0675,1.0678,1.0681,1.0664,0,0,0,0,0,0,0.9709,0.9741,0.9777,0.9877,0.9912,1.0059,1.0052,1.0068,1.012,1.0122,1.0224,1.0239,1.0287,1.0395,1.0418,1.0455,1.0414,1.0672,1.0676,1.068,1.0662,1.0667,1.067,0,0,0,0,0,0.9698,0.9766,0.9779,0.9806,0.9959,1.0061,1.0081,1.0133,1.0122,1.0159,1.0217,1.0236,1.0435,1.0405,1.0432,1.0471,1.067,1.0675,1.0679,1.0661,1.0666,1.067,0,0,0,0,0,0,0.967,0.9781,0.9795,0.9899,0.997,1.0069,1.0117,1.0137,1.0214,1.0213,1.0275,1.0298,1.0393,1.0443,1.0407,1.0565,1.0553,1.0563,1.0529,1.0535,1.0539,1.0525,1.0422,0,0,0,0,0,0.9675,0.9748,0.9842,0.9924,0.9959,1.0031,1.0078,1.0111,1.0188,1.0219,1.0285,1.0359,1.0438,1.049,1.0568,1.067,1.0692,1.071,1.0714,1.0716,1.0724,1.078,1.0789,1.0697,1.0697,1.0697,0,0,0.9688,0.9758,0.9801,0.992,0.9979,1.0054,1.0056,1.0136,1.0192,1.0232,1.0329,1.038,1.0467,1.0567,1.0615,1.0612,1.0754,1.0722,1.0724,1.0731,1.0786,1.0794,1.0802,1.07,1.07,1.0699,0,0,0.9749,0.9809,0.9883,0.9942,1.0031,1.0078,1.0096,1.0191,1.0226,1.0324,1.0355,1.0422,1.0558,1.0618,1.0667,1.0748,1.0768,1.0771,1.0792,1.0846,1.0853,1.0859,1.0887,1.0896,1.0779,1.0779,1.0779,0,0.9754,0.9867,0.9919,0.9996,1.0048,1.0085,1.016,1.0215,1.0325,1.0359,1.0353,1.0522,1.0584,1.0698,1.0717,1.0756,1.0777,1.076,1.0847,1.0855,1.0862,1.0889,1.0899,1.0779,1.0779,1.0779,1.0779,0,0.9868,0.9946,0.9995,1.0098,1.0155,1.0231,1.0294,1.0346,1.0373,1.0421,1.052,1.0595,1.0688,1.0717,1.0746,1.0835,1.083,1.0835,1.0824,1.0869,1.0895,1.0906,1.0779,1.0779,1.0779,1.0779,0,0,0.9918,1.0047,1.0064,1.0111,1.021,1.0272,1.0348,1.0438,1.048,1.0554,1.062,1.0732,1.0736,1.0791,1.0827,1.0874,1.0931,1.0873,1.0876,1.088,1.1032,1.1027,1.1038,1.0945,1.0947,1.0949,1.1024,0,0.9991,1.0128,1.0176,1.029,1.0362,1.0397,1.0464,1.0532,1.0578,1.0646,1.0698,1.0776,1.0776,1.0809,1.0857,1.0914,1.0962,1.0909,1.1007,1.1009,1.0983,1.1053,1.1049,1.1116,1.1035,1.1037,1.1038,0,1.0094,1.0168,1.0288,1.0376,1.0408,1.0467,1.0552,1.0616,1.0694,1.0724,1.0783,1.0815,1.0897,1.088,1.0993,1.0955,1.0998,1.1032,1.1036,1.1047,1.1026,1.1065,1.1139,1.1149,1.1055,1.1054,1.1053,0,1.0117,1.0246,1.0334,1.0373,1.0479,1.0519,1.0565,1.0641,1.0691,1.0765,1.0797,1.0881,1.0926,1.0989,1.1043,1.1026,1.115,1.1138,1.1177,1.1176,1.1202,1.12,1.1284,1.123,1.123,1.123,1.1229,0,1.0193,1.0265,1.0345,1.04,1.0481,1.0535,1.0614,1.0663,1.0729,1.0793,1.0829,1.0889,1.0956,1.1024,1.1066,1.1152,1.1173,1.1199,1.1209,1.1196,1.1192,1.1224,1.1221,1.1232,1.1232,1.1231,1.1231,0,1.0232,1.0289,1.0387,1.0478,1.0503,1.0558,1.0637,1.069,1.0737,1.0818,1.084,1.0913,1.0995,1.1054,1.1161,1.1189,1.1281,1.1291,1.1254,1.1259,1.1294,1.129,1.1402,1.1419,1.1354,1.1354,1.1355,0,1.0277,1.0332,1.0428,1.0473,1.0519,1.0591,1.0641,1.0696,1.0747,1.0838,1.0881,1.0964,1.1034,1.1163,1.1227,1.1308,1.132,1.1354,1.1333,1.1316,1.132,1.1315,1.1321,1.1357,1.1357,1.1358,1.1358,0,1.0349,1.0374,1.0444,1.0524,1.0582,1.0648,1.0715,1.075,1.0817,1.0872,1.0955,1.1009,1.1116,1.1198,1.1285,1.1333,1.1356,1.1364,1.1377,1.1363,1.1339,1.1351,1.1261,1.1361,1.1361,1.1361,1.136,1.136,1.0392,1.0442,1.0517,1.0594,1.0649,1.071,1.0764,1.0816,1.0886,1.0977,1.1005,1.1091,1.1165,1.1284,1.1332,1.14,1.1399,1.1419,1.1423,1.1427,1.1426,1.1328,1.1417,1.1417,1.1417,1.1416,1.1416,0,1.0465,1.0514,1.0584,1.0675,1.0735,1.075,1.0824,1.0873,1.0948,1.1015,1.1082,1.1177,1.1256,1.1325,1.1407,1.1448,1.1461,1.1468,1.1466,1.1476,1.1423,1.1403,1.1456,1.1456,1.1456,1.1456,1.1456,1.1456,1.051,1.0595,1.0629,1.0741,1.0791,1.0874,1.0914,1.097,1.1024,1.1127,1.1193,1.1236,1.1304,1.1391,1.1465,1.1483,1.1511,1.1515,1.1536,1.1485,1.148,1.1476,1.1457,1.1521,1.1521,1.1584,1.1584,1.1585]},{"header":{"parameterUnit":"m.s-1","parameterCategory":1,"la1":30.2991,"la2":30.254,"lo1":-89.0895,"lo2":-89.0444,"dy":0.0017,"dx":0.0017,"nx":28,"ny":28,"refTime":"2023-08-18T03:00:00:Z","depth":0,"parameterNumber":3,"parameterNumberName":"V-component_of_WINDS"},"data":[0,0,0,0,0,0,0,0,0,0,0,0,0,0,0,0,0,0,0,0,0,0,0,0,0,0,0,0,0,0,0,0,0,0,0,0,0,0,0,0,0,0,0,0,0,0,0,0,0,0,0,0,0,0,0,0,0,0,5.1673,5.1673,0,5.1644,5.1644,5.1643,5.1553,5.1551,5.1549,5.1547,5.1519,5.152,5.1521,0,0,0,0,0,0,0,0,0,0,0,0,0,5.1654,5.1654,5.1673,5.1673,5.1673,5.1644,5.1644,5.1643,5.1553,5.1551,5.1548,5.1546,5.1518,5.152,5.1521,0,0,0,0,0,0,0,0,0,0,0,0,0,5.1647,5.1655,5.1673,5.1624,5.162,5.1644,5.1644,5.1643,5.1554,5.1551,5.1548,5.1545,5.1518,5.152,5.1521,5.1592,0,0,5.1526,5.1527,0,0,0,0,0,0,0,0,5.1648,5.1648,5.1632,5.1628,5.1622,5.1599,5.1626,5.1626,5.1554,5.1579,5.1547,5.1543,5.1548,5.1547,5.1548,5.159,5.1589,5.1526,5.1527,5.1528,5.1529,0,0,0,0,0,0,0,5.1648,5.1649,5.1662,5.1632,5.1626,5.1604,5.16,5.1626,5.1581,5.1576,5.157,5.1567,5.1545,5.1547,5.1547,5.1589,5.1526,5.1528,5.1529,5.153,5.1687,5.169,0,0,0,0,0,0,5.1655,5.165,5.1663,5.1661,5.1628,5.1607,5.1602,5.161,5.158,5.1573,5.157,5.1563,5.1545,5.1545,5.1545,5.1625,5.1528,5.153,5.1531,5.1684,5.1687,5.1691,0,0,0,0,0,0,5.1655,5.1657,5.1664,5.1653,5.1653,5.1611,5.162,5.1611,5.1612,5.1575,5.1567,5.158,5.1543,5.1543,5.1581,5.1623,5.1531,5.1532,5.168,5.1685,5.1689,5.1786,0,0,0,0,0,0,5.1655,5.1658,5.1684,5.1655,5.1653,5.1699,5.1622,5.1612,5.1615,5.1606,5.1582,5.1576,5.1541,5.1579,5.1582,5.1624,5.1533,5.1676,5.1682,5.1688,5.1779,5.1794,5.1806,0,0,0,0,0,5.1655,5.1713,5.1685,5.1688,5.1685,5.1702,5.1701,5.1659,5.1619,5.1645,5.1621,5.1576,5.1618,5.1583,5.1587,5.1629,5.1673,5.168,5.1687,5.1773,5.1791,5.1806,0,0,0,0,0,0,5.1748,5.1708,5.1677,5.1728,5.1719,5.1686,5.1718,5.1679,5.1682,5.1674,5.1622,5.1618,5.1662,5.165,5.1611,5.1696,5.1638,5.1646,5.1702,5.1719,5.1732,5.1734,5.1535,0,0,0,0,0,5.1775,5.1791,5.1755,5.1803,5.18,5.176,5.1766,5.1734,5.1723,5.1719,5.1698,5.169,5.1701,5.1709,5.1717,5.1777,5.177,5.1808,5.1822,5.1833,5.1841,5.1871,5.1887,5.1714,5.1714,5.1714,0,0,5.183,5.181,5.1823,5.1822,5.1811,5.183,5.1758,5.1781,5.1794,5.1723,5.1756,5.1741,5.1728,5.1777,5.1798,5.1768,5.1887,5.1842,5.1852,5.1853,5.188,5.1896,5.1911,5.1719,5.1718,5.1717,0,0,5.1939,5.1926,5.1964,5.1955,5.1939,5.1912,5.1922,5.1895,5.1882,5.1915,5.1862,5.1878,5.1898,5.1891,5.189,5.1997,5.1956,5.2002,5.2073,5.2103,5.2116,5.2128,5.2166,5.218,5.2009,5.201,5.201,0,5.2009,5.2034,5.1988,5.2014,5.2015,5.1952,5.199,5.1984,5.1972,5.1975,5.1941,5.1965,5.1952,5.1998,5.2025,5.2026,5.2035,5.2004,5.2118,5.2129,5.214,5.2175,5.219,5.2015,5.2015,5.2014,5.2013,0,5.2121,5.214,5.2173,5.2162,5.2167,5.22,5.2159,5.2169,5.2138,5.2114,5.2149,5.2131,5.2134,5.2143,5.2113,5.2185,5.2167,5.2127,5.2068,5.2163,5.2195,5.2208,5.2023,5.2021,5.2019,5.2018,0,0,5.2288,5.2252,5.2265,5.2259,5.2238,5.2252,5.2282,5.2284,5.2294,5.2289,5.2312,5.2331,5.2294,5.2293,5.2261,5.2288,5.2374,5.2244,5.2243,5.2269,5.2452,5.2482,5.2499,5.2347,5.2349,5.2351,5.2453,0,5.2391,5.2438,5.2398,5.2453,5.247,5.241,5.2436,5.2426,5.2406,5.2417,5.2395,5.2409,5.2358,5.2357,5.2381,5.2358,5.241,5.2351,5.2369,5.237,5.2373,5.2516,5.2547,5.2644,5.2466,5.2468,5.2469,0,5.2517,5.2516,5.2573,5.2548,5.2554,5.2578,5.2577,5.2589,5.2577,5.256,5.2559,5.2521,5.2549,5.2492,5.253,5.249,5.2496,5.2486,5.2488,5.2488,5.2425,5.2519,5.2674,5.2689,5.2489,5.2487,5.2486,0,5.2632,5.2646,5.2681,5.2679,5.2651,5.2669,5.2658,5.2643,5.2647,5.2647,5.2649,5.2653,5.2655,5.2659,5.2622,5.2584,5.2665,5.2605,5.2652,5.2653,5.2671,5.267,5.2829,5.2676,5.2676,5.2676,5.2675,0,5.275,5.2787,5.2732,5.2755,5.2795,5.2748,5.2789,5.2773,5.276,5.2778,5.2727,5.2745,5.2696,5.271,5.2682,5.2717,5.2719,5.2706,5.2698,5.271,5.2712,5.2713,5.2705,5.2679,5.2679,5.2678,5.2677,0,5.2885,5.285,5.2884,5.2855,5.2849,5.288,5.2854,5.2874,5.285,5.2874,5.2877,5.284,5.2853,5.2817,5.2825,5.2806,5.2858,5.2839,5.2862,5.2856,5.2904,5.29,5.3069,5.3088,5.2923,5.2925,5.2926,0,5.2962,5.2989,5.2963,5.2971,5.2963,5.2977,5.298,5.2936,5.2943,5.2931,5.2953,5.2961,5.2966,5.299,5.2964,5.297,5.2951,5.301,5.2952,5.2963,5.2951,5.295,5.2953,5.3022,5.3024,5.3025,5.3027,0,5.3103,5.3085,5.3092,5.3093,5.3099,5.3099,5.3094,5.3104,5.3057,5.3067,5.3079,5.3083,5.3091,5.3101,5.3101,5.309,5.3051,5.3045,5.3056,5.3069,5.308,5.3074,5.2894,5.3041,5.304,5.3039,5.3038,5.3037,5.3211,5.3232,5.3217,5.3227,5.3219,5.3216,5.3233,5.3211,5.3221,5.3223,5.3197,5.3215,5.3203,5.3199,5.3193,5.3207,5.318,5.3196,5.32,5.3205,5.3213,5.3079,5.3207,5.3206,5.3206,5.3206,5.3205,0,5.3349,5.3336,5.3346,5.3341,5.3349,5.3311,5.3304,5.3314,5.333,5.3322,5.3327,5.3342,5.3351,5.3327,5.3332,5.3348,5.3331,5.3351,5.3349,5.3348,5.3237,5.3226,5.3366,5.3366,5.3366,5.3366,5.3366,5.3366,5.3422,5.3455,5.3435,5.3465,5.3452,5.3468,5.3468,5.3466,5.3458,5.3477,5.3484,5.3468,5.3453,5.3457,5.3464,5.3457,5.3461,5.3488,5.3475,5.3371,5.3356,5.3341,5.3331,5.349,5.349,5.3585,5.3586,5.3586]}]]